LGTS Airport Information

Runway Information
Runway 10 Length 8005 ft width 164 ft
Elevation 9 ft Threshold 0 ft Heading 104
Runway 28 Length 8005 ft Width 164 ft
Elevation 19 ft Threshold 0 ft Heading 284
Runway 16 Length 7907 ft width 197 ft
Elevation 14 ft Threshold 0 ft Heading 166
Runway 34 Length 7907 ft Width 197 ft
Elevation 22 ft Threshold 0 ft Heading 346
Airport Frequencies
Type A/G Name RDO Frequency 563.7 MHZ
Type APP Name APP Frequency 120.8 MHZ
Type ATIS Name ATIS Frequency 127.55 MHZ
Type CLD Name CLNC DEL Frequency 118.05 MHZ
Type GND Name GND Frequency 121.7 MHZ
Type TWR Name TWR Frequency 118.1 MHZ
Airport Navaids
Type TACAN Name Mikra Frequency 117400 KHZ
Type TACAN Name Mikra Frequency 115300 KHZ
Type VOR-DME Name Mikra Frequency 110800 KHZ
Type NDB Name Thessaloniki Frequency 345 KHZ
Type VOR-DME Name Thessaloniki Frequency 112100 KHZ
Airport Weather Information & NOTAM
ADDS - METARS form results

(1438 UTC 22 July 2018)
 
METAR text: LGTS 221420Z 16011KT CAVOK 36/11 Q1006 NOSIG
Conditions at: LGTS (THESSALONIKI/MIK, GR) observed 1420 UTC 22 July 2018
Temperature: 36.0°C (97°F)
Dewpoint: 11.0°C (52°F) [RH = 22%]
Pressure (altimeter): 29.70 inches Hg (1006.0 mb)
Winds: from the SSE (160 degrees) at 13 MPH (11 knots; 5.7 m/s)
Visibility: 6 or more miles (10+ km)
Ceiling: ceiling and visibility are OK
Clouds: unknown
Weather: no significant weather observed at this time

METAR text: LGTS 221350Z 16013KT CAVOK 36/11 Q1006 NOSIG
Conditions at: LGTS (THESSALONIKI/MIK, GR) observed 1350 UTC 22 July 2018
Temperature: 36.0°C (97°F)
Dewpoint: 11.0°C (52°F) [RH = 22%]
Pressure (altimeter): 29.70 inches Hg (1006.0 mb)
Winds: from the SSE (160 degrees) at 15 MPH (13 knots; 6.8 m/s)
Visibility: 6 or more miles (10+ km)
Ceiling: ceiling and visibility are OK
Clouds: unknown
Weather: no significant weather observed at this time